Flag for U.S.A. Weather past 2 weeks in Syracuse, New York, U.S.A.

Now
45 °F

Clear.


Feels Like: 44 °F
Forecast: 45 / 68 °F
Wind: 3 mph from East

Location: Syracuse Hancock International Airport

Current Time: Apr 18, 2015 at 4:52:26 AM

Latest Report: Apr 18, 2015 at 3:54 AM


Visibility: 8 mi

Pressure: 29.96 "Hg

Humidity: 93%

Dew point: 43 °F

Location of SyracuseLocation

Historic Weather in Syracuse — Graph

°F

Syracuse temperature yesterday

Maximum temperature yesterday: 61 °F (at 4:54 PM)
Minimum temperature yesterday: 49 °F (at 11:54 PM)
Average temperature yesterday: 54 °F

Past Weeks' High & Low Weather Summary

 TemperatureHumidityPressure
High80 °F (Apr 13, 2:54 PM)100% (Apr 4, 8:54 AM)30.44 "Hg (Apr 4, 8:54 AM)
Low30 °F (Apr 6, 1:54 AM)15% (Apr 16, 3:54 PM)29.58 "Hg (Apr 10, 1:54 PM)
Average46 °F66%30.10 "Hg
* Reported Apr 3 2:00 AM — Apr 18 2:54 AM, Syracuse, Weather by CustomWeather, © 2015

Note: Actual official high and low records may vary slightly from our data, if they occured in-between our weather recording intervals... More about our weather records

Advertising

Syracuse weather history for previous 24 hours

 ConditionsComfort  
Time TempWeatherWind HumidityBarometerVisibility
2:54 AM
Sat, Apr 18
48 °FClear.8 mph86%29.95 "Hg10 mi
1:54 AM49 °FClear.7 mph86%29.96 "Hg9 mi
12:54 AM48 °FPassing clouds.5 mph89%29.97 "Hg8 mi
11:54 PM
Fri, Apr 17
49 °FPassing clouds.No wind86%29.97 "Hg8 mi
10:54 PM50 °FClear.5 mph86%29.97 "Hg10 mi
9:54 PM51 °FClear.3 mph83%29.97 "Hg10 mi
8:54 PM53 °FClear.No wind80%29.96 "Hg10 mi
7:54 PM59 °FSunny.5 mph67%29.94 "Hg10 mi
6:54 PM61 °FScattered clouds.8 mph62%29.94 "Hg10 mi
5:54 PM60 °FScattered clouds.12 mph65%29.94 "Hg10 mi
4:54 PM61 °FOvercast.13 mph65%29.95 "Hg10 mi
3:54 PM59 °FMostly cloudy.9 mph72%29.96 "Hg10 mi
2:54 PM55 °FOvercast.9 mph83%29.98 "Hg9 mi
1:54 PM55 °FMostly cloudy.10 mph87%29.98 "Hg9 mi
12:54 PM53 °FMostly cloudy.8 mph93%29.98 "Hg8 mi
11:54 AM53 °FLow clouds.6 mph93%29.98 "Hg10 mi
10:54 AM53 °FDrizzle. Fog.8 mph93%29.98 "Hg4 mi
9:54 AM53 °FDrizzle. Fog.6 mph93%29.99 "Hg4 mi
8:54 AM53 °FLow clouds.8 mph96%29.99 "Hg10 mi
7:54 AM53 °FMostly cloudy.10 mph93%30.00 "Hg10 mi
6:54 AM51 °FOvercast.3 mph96%30.00 "Hg7 mi
6:03 AM50 °FDrizzle. Fog.No wind96%30.00 "Hg4 mi
5:54 AM50 °FDrizzle. Fog.No wind96%29.99 "Hg3 mi
4:54 AM50 °FLight rain. Overcast.3 mph93%30.00 "Hg9 mi
Weather by CustomWeather, © 2015

See weather overviewHow to use our weather pages